FW0869 Weather Reports


Display with metric or nautical units.
time (UTC)temp
F
wind
direction
speed
MPH
gust
MPH
rain 1hr
in
rain 24hr
in
rain mn
in
humidity
%
barometer
mb
20260503071653 52 273 6.0 10.0 0.00 0.00 0.00 26 1019.3
20260503071646 52 290 6.0 10.0 0.00 0.00 0.00 26 1019.3
20260503071442 51 272 5.0 10.0 0.00 0.00 0.00 26 1019.3
20260503071343 51 297 4.0 10.0 0.00 0.00 0.00 26 1019.3
20260503071241 51 304 4.0 9.0 0.00 0.00 0.00 26 1019.3
20260503071136 51 254 3.0 9.0 0.00 0.00 0.00 25 1019.3
20260503071103 51 253 3.0 9.0 0.00 0.00 0.00 25 1019.3
20260503071036 51 307 3.0 8.0 0.00 0.00 0.00 24 1019.3
20260503070943 51 321 3.0 7.0 0.00 0.00 0.00 24 1019.3
20260503070737 51 259 2.0 7.0 0.00 0.00 0.00 23 1019.3
20260503070630 51 268 3.0 6.0 0.00 0.00 0.00 23 1019.3
20260503070603 51 247 3.0 6.0 0.00 0.00 0.00 23 1019.3
20260503070530 51 240 3.0 7.0 0.00 0.00 0.00 23 1019.3
20260503070431 51 248 3.0 7.0 0.00 0.00 0.00 23 1019.3
20260503070336 51 244 3.0 7.0 0.00 0.00 0.00 23 1019.3
20260503070135 51 202 4.0 7.0 0.00 0.00 0.00 23 1019.3
20260503070128 51 219 4.0 7.0 0.00 0.00 0.00 23 1019.3
20260503060218 51 232 3.0 5.0 0.00 0.00 0.00 22 1019.6
20260503055055 51 242 3.0 7.0 0.00 0.00 0.00 21 1019.6
20260503055012 51 248 3.0 6.0 0.00 0.00 0.00 22 1019.6
20260503054913 51 261 3.0 7.0 0.00 0.00 0.00 22 1019.7
20260503054813 51 262 4.0 7.0 0.00 0.00 0.00 22 1019.6
20260503054712 51 250 4.0 8.0 0.00 0.00 0.00 21 1019.7
20260503054612 51 263 4.0 8.0 0.00 0.00 0.00 21 1019.7
20260503054556 51 264 4.0 8.0 0.00 0.00 0.00 21 1019.7
20260503054520 51 252 4.0 8.0 0.00 0.00 0.00 22 1019.7
20260503054310 51 264 4.0 8.0 0.00 0.00 0.00 22 1019.7
20260503054211 51 275 4.0 8.0 0.00 0.00 0.00 22 1019.7
20260503054104 51 247 4.0 8.0 0.00 0.00 0.00 22 1019.7
20260503054056 51 246 4.0 8.0 0.00 0.00 0.00 22 1019.7
20260503054005 51 259 4.0 8.0 0.00 0.00 0.00 22 1019.7
20260503053904 51 252 4.0 8.0 0.00 0.00 0.00 22 1019.7
20260503053804 51 240 4.0 8.0 0.00 0.00 0.00 22 1019.7
20260503053702 51 252 3.0 7.0 0.00 0.00 0.00 21 1019.6
20260503053557 52 263 3.0 7.0 0.00 0.00 0.00 21 1019.6
20260503053457 52 259 3.0 6.0 0.00 0.00 0.00 22 1019.7
20260503053358 52 254 3.0 6.0 0.00 0.00 0.00 22 1019.6
20260503053256 52 246 3.0 6.0 0.00 0.00 0.00 22 1019.7
20260503053155 52 246 3.0 6.0 0.00 0.00 0.00 22 1019.6
20260503053107 52 228 3.0 6.0 0.00 0.00 0.00 22 1019.6
20260503053103 52 228 3.0 6.0 0.00 0.00 0.00 22 1019.7
20260503052748 52 261 3.0 7.0 0.00 0.00 0.00 22 1019.6
20260503052655 52 261 3.0 7.0 0.00 0.00 0.00 21 1019.6
20260503052648 52 262 3.0 7.0 0.00 0.00 0.00 21 1019.6
20260503052442 52 259 3.0 7.0 0.00 0.00 0.00 21 1019.6
20260503052404 52 252 3.0 7.0 0.00 0.00 0.00 21 1019.6
20260503052250 52 250 3.0 7.0 0.00 0.00 0.00 21 1019.6
20260503051944 52 244 2.0 7.0 0.00 0.00 0.00 21 1019.6
20260503051736 53 268 2.0 4.0 0.00 0.00 0.00 21 1019.6
20260503051635 53 268 2.0 4.0 0.00 0.00 0.00 21 1019.6
20260503051533 53 268 2.0 4.0 0.00 0.00 0.00 21 1019.4
20260503051439 53 268 2.0 4.0 0.00 0.00 0.00 21 1019.6
20260503051229 53 290 3.0 6.0 0.00 0.00 0.00 21 1019.6
20260503051130 53 290 3.0 6.0 0.00 0.00 0.00 21 1019.6
20260503051049 53 289 3.0 6.0 0.00 0.00 0.00 21 1019.6
20260503051031 53 290 3.0 6.0 0.00 0.00 0.00 21 1019.6
20260503050929 53 289 3.0 6.0 0.00 0.00 0.00 21 1019.6
20260503050855 53 290 3.0 7.0 0.00 0.00 0.00 21 1019.6
20260503050633 53 290 4.0 7.0 0.00 0.00 0.00 21 1019.6
20260503050322 53 269 4.0 8.0 0.00 0.00 0.00 22 1019.6
20260503050302 53 276 4.0 8.0 0.00 0.00 0.00 22 1019.7
20260503050020 53 273 4.0 8.0 0.00 0.00 0.00 22 1019.7
20260503045918 52 279 4.0 8.0 0.00 0.00 0.00 23 1019.7
20260503045814 52 294 4.0 8.0 0.00 0.00 0.00 23 1019.7
20260503045714 52 300 4.0 8.0 0.00 0.00 0.00 23 1019.6
20260503045615 51 291 3.0 8.0 0.00 0.00 0.00 23 1019.7
20260503045548 51 297 3.0 8.0 0.00 0.00 0.00 23 1019.7
20260503045515 51 298 3.0 8.0 0.00 0.00 0.00 23 1019.7
20260503045413 51 303 3.0 8.0 0.00 0.00 0.00 23 1019.7
20260503045315 51 291 3.0 8.0 0.00 0.00 0.00 23 1019.7
20260503045222 51 311 3.0 8.0 0.00 0.00 0.00 23 1019.7
20260503045045 51 290 2.0 7.0 0.00 0.00 0.00 23 1019.7
20260503045014 51 255 2.0 4.0 0.00 0.00 0.00 23 1019.7
20260503044913 51 254 2.0 4.0 0.00 0.00 0.00 22 1019.7
20260503044810 51 254 2.0 4.0 0.00 0.00 0.00 22 1019.7
20260503044710 51 254 2.0 4.0 0.00 0.00 0.00 22 1019.8
20260503044610 51 254 2.0 4.0 0.00 0.00 0.00 22 1019.8
20260503044544 51 254 3.0 4.0 0.00 0.00 0.00 22 1019.8
20260503044506 51 254 3.0 4.0 0.00 0.00 0.00 22 1019.8
20260503044405 51 254 3.0 5.0 0.00 0.00 0.00 22 1019.7
20260503044304 51 254 3.0 5.0 0.00 0.00 0.00 22 1019.7
20260503044205 51 254 3.0 5.0 0.00 0.00 0.00 22 1019.8
20260503044103 51 254 3.0 5.0 0.00 0.00 0.00 22 1019.7
20260503044040 51 254 3.0 5.0 0.00 0.00 0.00 22 1019.7
20260503044002 51 254 3.0 5.0 0.00 0.00 0.00 22 1019.7
20260503043859 51 254 3.0 5.0 0.00 0.00 0.00 22 1019.7
20260503043802 51 254 3.0 5.0 0.00 0.00 0.00 22 1019.7
20260503043554 51 248 3.0 5.0 0.00 0.00 0.00 22 1019.7
20260503043534 51 246 3.0 5.0 0.00 0.00 0.00 22 1019.7
20260503043455 51 239 3.0 5.0 0.00 0.00 0.00 23 1019.7
20260503043353 51 240 3.0 5.0 0.00 0.00 0.00 23 1019.8
20260503043248 51 251 3.0 5.0 0.00 0.00 0.00 22 1019.8
20260503043155 51 250 3.0 5.0 0.00 0.00 0.00 23 1019.8
20260503043027 51 234 3.0 5.0 0.00 0.00 0.00 23 1019.8
20260503042948 51 256 2.0 5.0 0.00 0.00 0.00 23 1019.8
20260503042900 51 243 2.0 5.0 0.00 0.00 0.00 23 1019.8
20260503042628 51 250 2.0 4.0 0.00 0.00 0.00 24 1019.8
20260503042448 51 319 2.0 4.0 0.00 0.00 0.00 24 1019.8
20260503042237 51 319 2.0 3.0 0.00 0.00 0.00 24 1019.8
20260503042138 51 319 2.0 3.0 0.00 0.00 0.00 24 1019.8
20260503042015 51 319 2.0 3.0 0.00 0.00 0.00 24 1019.7
20260503041936 51 319 2.0 3.0 0.00 0.00 0.00 24 1019.7
20260503041835 51 319 2.0 3.0 0.00 0.00 0.00 24 1019.7
20260503041730 51 319 2.0 3.0 0.00 0.00 0.00 24 1019.8
20260503041630 51 319 2.0 3.0 0.00 0.00 0.00 23 1019.8
20260503041535 51 319 2.0 3.0 0.00 0.00 0.00 23 1019.8
20260503041329 51 319 1.0 3.0 0.00 0.00 0.00 23 1019.8
20260503041229 51 319 1.0 3.0 0.00 0.00 0.00 23 1019.8
20260503041128 51 319 1.0 3.0 0.00 0.00 0.00 23 1019.8
20260503041003 51 319 1.0 3.0 0.00 0.00 0.00 23 1019.8
20260503040926 51 319 1.0 3.0 0.00 0.00 0.00 23 1019.8
20260503040825 51 319 1.0 3.0 0.00 0.00 0.00 23 1019.7
20260503040618 51 319 1.0 3.0 0.00 0.00 0.00 23 1019.8
20260503040517 52 319 0.0 3.0 0.00 0.00 0.00 24 1019.8
20260503040457 52 319 0.0 3.0 0.00 0.00 0.00 24 1019.8
20260503040418 52 319 0.0 2.0 0.00 0.00 0.00 24 1019.7
20260503040324 52 319 0.0 2.0 0.00 0.00 0.00 24 1019.8
20260503040124 52 319 0.0 2.0 0.00 0.00 0.00 24 1019.8
20260503035952 52 319 1.0 3.0 0.00 0.00 0.00 24 1019.7
20260503035914 52 319 1.0 4.0 0.00 0.00 0.00 24 1019.7
20260503035811 52 319 1.0 4.0 0.00 0.00 0.00 24 1019.7
20260503035708 53 319 1.0 4.0 0.00 0.00 0.00 24 1019.7
20260503035616 53 319 1.0 4.0 0.00 0.00 0.00 23 1019.8
20260503035445 53 319 2.0 4.0 0.00 0.00 0.00 23 1019.7
20260503035408 53 319 2.0 4.0 0.00 0.00 0.00 22 1019.7
20260503035305 53 319 1.0 4.0 0.00 0.00 0.00 22 1019.7
20260503035200 53 319 1.0 4.0 0.00 0.00 0.00 21 1019.7
20260503035100 53 319 1.0 4.0 0.00 0.00 0.00 21 1019.7
20260503034939 53 319 1.0 4.0 0.00 0.00 0.00 21 1019.7
20260503034900 54 319 1.0 4.0 0.00 0.00 0.00 21 1019.7
20260503034759 54 319 1.0 3.0 0.00 0.00 0.00 21 1019.7
20260503034700 54 319 0.0 3.0 0.00 0.00 0.00 20 1019.7
20260503034558 54 319 0.0 3.0 0.00 0.00 0.00 21 1019.6
20260503034434 54 319 0.0 2.0 0.00 0.00 0.00 20 1019.7
20260503034400 54 319 0.0 2.0 0.00 0.00 0.00 20 1019.7
20260503034150 55 319 1.0 4.0 0.00 0.00 0.00 20 1019.6
20260503034050 55 319 1.0 4.0 0.00 0.00 0.00 20 1019.6
20260503033928 55 319 1.0 4.0 0.00 0.00 0.00 20 1019.7
20260503033851 55 319 1.0 4.0 0.00 0.00 0.00 20 1019.7
20260503033748 55 319 1.0 4.0 0.00 0.00 0.00 20 1019.6
20260503033644 55 319 1.0 4.0 0.00 0.00 0.00 20 1019.6
20260503033544 55 319 1.0 4.0 0.00 0.00 0.00 20 1019.7
20260503033424 55 319 1.0 4.0 0.00 0.00 0.00 19 1019.7
20260503033341 56 319 0.0 4.0 0.00 0.00 0.00 19 1019.7
20260503033242 56 319 0.0 2.0 0.00 0.00 0.00 19 1019.6
20260503033141 56 319 0.0 2.0 0.00 0.00 0.00 19 1019.6
20260503033039 56 319 0.0 2.0 0.00 0.00 0.00 19 1019.6
20260503032924 56 319 1.0 2.0 0.00 0.00 0.00 18 1019.6
20260503032836 56 319 1.0 5.0 0.00 0.00 0.00 18 1019.7
20260503032736 56 319 1.0 5.0 0.00 0.00 0.00 18 1019.7
20260503032640 57 319 1.0 5.0 0.00 0.00 0.00 18 1019.7
20260503032423 57 319 1.0 5.0 0.00 0.00 0.00 18 1019.7
20260503032336 57 319 1.0 5.0 0.00 0.00 0.00 18 1019.6
20260503032125 57 319 2.0 5.0 0.00 0.00 0.00 18 1019.7
20260503032024 57 319 2.0 5.0 0.00 0.00 0.00 17 1019.6
20260503031924 57 319 2.0 5.0 0.00 0.00 0.00 17 1019.6
20260503031824 57 319 2.0 5.0 0.00 0.00 0.00 18 1019.7
20260503031723 57 319 2.0 5.0 0.00 0.00 0.00 18 1019.6
20260503031647 57 319 2.0 5.0 0.00 0.00 0.00 18 1019.6
20260503031428 57 319 3.0 5.0 0.00 0.00 0.00 18 1019.7
20260503031217 57 319 3.0 5.0 0.00 0.00 0.00 18 1019.6
20260503031137 57 319 3.0 5.0 0.00 0.00 0.00 18 1019.6
20260503031024 57 345 3.0 5.0 0.00 0.00 0.00 18 1019.6
20260503030711 56 317 2.0 5.0 0.00 0.00 0.00 19 1019.6
20260503030608 56 317 2.0 5.0 0.00 0.00 0.00 19 1019.6
20260503030508 56 317 2.0 5.0 0.00 0.00 0.00 19 1019.6
20260503030408 56 317 2.0 5.0 0.00 0.00 0.00 19 1019.6
20260503030307 56 317 2.0 5.0 0.00 0.00 0.00 18 1019.6
20260503030205 56 317 2.0 5.0 0.00 0.00 0.00 18 1019.6
20260503030000 56 317 2.0 5.0 0.00 0.00 0.00 18 1019.6
20260503025917 56 314 2.0 5.0 0.00 0.00 0.00 18 1019.6
20260503025900 56 314 2.0 5.0 0.00 0.00 0.00 18 1019.6
20260503025801 56 341 2.0 3.0 0.00 0.00 0.00 17 1019.4
20260503025657 56 341 2.0 3.0 0.00 0.00 0.00 17 1019.4
20260503025555 56 341 2.0 3.0 0.00 0.00 0.00 17 1019.4
20260503025453 56 341 2.0 3.0 0.00 0.00 0.00 17 1019.4
20260503025417 56 313 2.0 3.0 0.00 0.00 0.00 17 1019.4
20260503025353 56 313 2.0 3.0 0.00 0.00 0.00 17 1019.4
20260503025253 56 313 2.0 3.0 0.00 0.00 0.00 17 1019.4
20260503025151 56 313 2.0 3.0 0.00 0.00 0.00 17 1019.4
20260503025052 56 313 2.0 3.0 0.00 0.00 0.00 17 1019.4
20260503024919 56 313 2.0 3.0 0.00 0.00 0.00 17 1019.4
20260503024846 56 313 2.0 3.0 0.00 0.00 0.00 17 1019.4
20260503024745 56 313 2.0 3.0 0.00 0.00 0.00 17 1019.4
20260503024646 56 313 2.0 3.0 0.00 0.00 0.00 17 1019.4
20260503024546 56 313 2.0 3.0 0.00 0.00 0.00 17 1019.4
20260503024418 56 313 2.0 3.0 0.00 0.00 0.00 17 1019.4
20260503024347 56 313 2.0 3.0 0.00 0.00 0.00 17 1019.4
20260503024139 56 313 2.0 3.0 0.00 0.00 0.00 18 1019.4
20260503024038 56 310 2.0 3.0 0.00 0.00 0.00 18 1019.4
20260503023938 56 310 2.0 3.0 0.00 0.00 0.00 18 1019.4
20260503023916 56 88 2.0 3.0 0.00 0.00 0.00 19 1019.4
20260503023835 56 88 1.0 3.0 0.00 0.00 0.00 19 1019.4
20260503023737 56 89 1.0 3.0 0.00 0.00 0.00 19 1019.3
20260503023634 56 89 1.0 3.0 0.00 0.00 0.00 20 1019.3
20260503023535 56 89 1.0 3.0 0.00 0.00 0.00 20 1019.3
20260503023442 56 88 1.0 3.0 0.00 0.00 0.00 20 1019.3
20260503023436 56 89 1.0 3.0 0.00 0.00 0.00 20 1019.3
20260503023232 56 88 1.0 3.0 0.00 0.00 0.00 21 1019.3
20260503023132 56 89 1.0 2.0 0.00 0.00 0.00 21 1019.3
20260503023032 56 89 1.0 2.0 0.00 0.00 0.00 21 1019.3
20260503022929 57 88 1.0 2.0 0.00 0.00 0.00 20 1019.3
20260503022911 57 89 1.0 2.0 0.00 0.00 0.00 20 1019.3
20260503022829 57 88 1.0 2.0 0.00 0.00 0.00 20 1019.2
20260503022737 57 88 1.0 2.0 0.00 0.00 0.00 20 1019.3
20260503022423 57 89 1.0 2.0 0.00 0.00 0.00 18 1019.2
20260503022410 58 88 1.0 2.0 0.00 0.00 0.00 18 1019.2
20260503022337 58 89 1.0 2.0 0.00 0.00 0.00 18 1019.2
20260503022019 58 89 1.0 2.0 0.00 0.00 0.00 17 1019.1
20260503021918 58 89 1.0 2.0 0.00 0.00 0.00 17 1019.1
20260503021907 58 88 1.0 2.0 0.00 0.00 0.00 17 1019.1
20260503021815 58 89 1.0 2.0 0.00 0.00 0.00 17 1019.1
20260503021724 58 89 1.0 2.0 0.00 0.00 0.00 17 1019.1
20260503021515 59 89 1.0 3.0 0.00 0.00 0.00 16 1019.1
20260503021427 59 88 1.0 3.0 0.00 0.00 0.00 16 1019.1
20260503021420 59 89 1.0 3.0 0.00 0.00 0.00 16 1019.1
20260503021214 59 89 1.0 3.0 0.00 0.00 0.00 16 1019.1
20260503021121 60 89 1.0 3.0 0.00 0.00 0.00 16 1019.0
20260503020913 60 89 1.0 3.0 0.00 0.00 0.00 16 1019.0
20260503020903 60 88 1.0 3.0 0.00 0.00 0.00 16 1019.0
20260503020813 60 89 1.0 3.0 0.00 0.00 0.00 15 1019.0
20260503020711 60 88 1.0 3.0 0.00 0.00 0.00 15 1019.0
20260503020612 60 89 1.0 3.0 0.00 0.00 0.00 15 1019.0
20260503020510 61 88 1.0 3.0 0.00 0.00 0.00 15 1019.0
20260503020411 61 89 2.0 3.0 0.00 0.00 0.00 15 1019.0
20260503020404 61 88 2.0 3.0 0.00 0.00 0.00 15 1019.0
20260503020313 61 89 2.0 3.0 0.00 0.00 0.00 15 1019.0
20260503020124 61 89 2.0 3.0 0.00 0.00 0.00 15 1019.0
20260503020118 62 89 2.0 4.0 0.00 0.00 0.00 14 1019.0
20260503015800 62 89 2.0 4.0 0.00 0.00 0.00 14 1019.0
20260503015700 62 88 2.0 4.0 0.00 0.00 0.00 14 1019.0
20260503015600 62 88 2.0 4.0 0.00 0.00 0.00 14 1019.0
20260503015459 62 88 2.0 4.0 0.00 0.00 0.00 14 1019.0
20260503015422 62 89 2.0 6.0 0.00 0.00 0.00 14 1019.0
20260503014853 63 89 2.0 6.0 0.00 0.00 0.00 13 1019.0
20260503014749 63 89 2.0 6.0 0.00 0.00 0.00 13 1018.8
20260503014648 63 88 2.0 6.0 0.00 0.00 0.00 13 1018.8
20260503014547 64 88 2.0 6.0 0.00 0.00 0.00 13 1018.8
20260503014447 64 89 2.0 6.0 0.00 0.00 0.00 12 1018.8
20260503014347 64 89 2.0 6.0 0.00 0.00 0.00 12 1018.8
20260503014248 64 89 2.0 6.0 0.00 0.00 0.00 12 1018.8
20260503014145 64 89 2.0 6.0 0.00 0.00 0.00 12 1019.0
20260503014045 64 88 3.0 6.0 0.00 0.00 0.00 12 1018.8
20260503013952 65 88 3.0 7.0 0.00 0.00 0.00 12 1018.8
20260503013841 65 89 3.0 7.0 0.00 0.00 0.00 12 1018.8
20260503013740 65 89 3.0 7.0 0.00 0.00 0.00 12 1018.8
20260503013640 65 80 3.0 7.0 0.00 0.00 0.00 12 1018.8
20260503013539 65 80 3.0 7.0 0.00 0.00 0.00 12 1018.8
20260503013437 65 80 3.0 7.0 0.00 0.00 0.00 12 1018.8
20260503013335 65 71 4.0 7.0 0.00 0.00 0.00 12 1018.8
20260503013301 65 80 4.0 7.0 0.00 0.00 0.00 12 1018.8
20260503013254 65 67 4.0 7.0 0.00 0.00 0.00 11 1018.8
20260503012734 65 78 3.0 7.0 0.00 0.00 0.00 12 1018.8
20260503012529 66 82 3.0 7.0 0.00 0.00 0.00 12 1018.8
20260503012425 66 85 3.0 7.0 0.00 0.00 0.00 12 1018.8
20260503012324 66 94 3.0 7.0 0.00 0.00 0.00 12 1018.8
20260503012219 66 94 3.0 7.0 0.00 0.00 0.00 11 1018.7
20260503012119 66 107 2.0 7.0 0.00 0.00 0.00 11 1018.8
20260503012023 66 109 2.0 7.0 0.00 0.00 0.00 11 1018.7
20260503011919 67 110 2.0 4.0 0.00 0.00 0.00 11 1018.8
20260503011817 67 122 2.0 6.0 0.00 0.00 0.00 11 1018.7
20260503011719 67 105 2.0 6.0 0.00 0.00 0.00 11 1018.7
20260503011511 67 105 3.0 7.0 0.00 0.00 0.00 11 1018.7
20260503011411 67 105 3.0 8.0 0.00 0.00 0.00 11 1018.7
20260503011312 67 105 3.0 8.0 0.00 0.00 0.00 11 1018.7
20260503011208 68 72 3.0 8.0 0.00 0.00 0.00 11 1018.7
20260503011109 68 79 3.0 8.0 0.00 0.00 0.00 11 1018.7
20260503011008 68 92 3.0 8.0 0.00 0.00 0.00 11 1018.7
20260503010908 68 96 3.0 8.0 0.00 0.00 0.00 10 1018.7
20260503010805 68 118 3.0 8.0 0.00 0.00 0.00 10 1018.7
20260503010700 68 104 4.0 8.0 0.00 0.00 0.00 11 1018.7
20260503010601 68 95 3.0 8.0 0.00 0.00 0.00 10 1018.7
20260503010500 69 107 3.0 8.0 0.00 0.00 0.00 11 1018.7
20260503010400 69 129 3.0 8.0 0.00 0.00 0.00 11 1018.7
20260503010259 69 92 3.0 8.0 0.00 0.00 0.00 11 1018.6
20260503010156 69 132 3.0 8.0 0.00 0.00 0.00 11 1018.7
20260503010056 69 132 3.0 8.0 0.00 0.00 0.00 10 1018.7
20260503005956 69 74 3.0 8.0 0.00 0.00 0.00 10 1018.7
20260503005856 69 64 3.0 8.0 0.00 0.00 0.00 10 1018.6
20260503005753 70 35 3.0 7.0 0.00 0.00 0.00 11 1018.7
20260503005648 70 74 3.0 7.0 0.00 0.00 0.00 10 1018.7
20260503005548 70 75 3.0 5.0 0.00 0.00 0.00 10 1018.7
20260503005448 70 83 3.0 6.0 0.00 0.00 0.00 9 1018.7
20260503005348 70 70 3.0 6.0 0.00 0.00 0.00 10 1018.7
20260503005247 70 85 3.0 6.0 0.00 0.00 0.00 10 1018.6
20260503005142 70 111 3.0 6.0 0.00 0.00 0.00 10 1018.7
20260503005041 70 80 3.0 9.0 0.00 0.00 0.00 10 1018.7
20260503004942 70 80 4.0 9.0 0.00 0.00 0.00 11 1018.7
20260503004841 70 80 4.0 10.0 0.00 0.00 0.00 10 1018.7
20260503004741 70 86 5.0 10.0 0.00 0.00 0.00 9 1018.7
20260503004635 70 85 5.0 10.0 0.00 0.00 0.00 10 1018.7
20260503004536 70 86 5.0 10.0 0.00 0.00 0.00 10 1018.7
20260503004453 69 91 5.0 10.0 0.00 0.00 0.00 10 1018.7
20260503004446 69 86 5.0 10.0 0.00 0.00 0.00 10 1018.7
20260503004129 69 80 5.0 10.0 0.00 0.00 0.00 9 1018.7
20260503004029 69 59 5.0 10.0 0.00 0.00 0.00 10 1018.7
20260503003931 69 80 5.0 10.0 0.00 0.00 0.00 10 1018.8
20260503003830 69 94 4.0 9.0 0.00 0.00 0.00 10 1018.7
20260503003730 69 88 4.0 9.0 0.00 0.00 0.00 10 1018.7
20260503003625 69 114 4.0 9.0 0.00 0.00 0.00 10 1018.7
20260503003525 70 100 4.0 9.0 0.00 0.00 0.00 9 1018.8
20260503003426 69 74 4.0 9.0 0.00 0.00 0.00 12 1018.8
20260503003326 69 40 4.0 9.0 0.00 0.00 0.00 11 1018.7
20260503003224 69 107 4.0 9.0 0.00 0.00 0.00 12 1018.7
20260503003124 69 78 4.0 9.0 0.00 0.00 0.00 11 1018.8
20260503003023 69 98 4.0 9.0 0.00 0.00 0.00 10 1018.7
20260503002922 69 51 4.0 10.0 0.00 0.00 0.00 10 1018.8
20260503002819 69 111 5.0 10.0 0.00 0.00 0.00 10 1018.7
20260503002719 69 92 5.0 10.0 0.00 0.00 0.00 10 1018.8
20260503002511 69 91 5.0 10.0 0.00 0.00 0.00 9 1018.7
20260503002413 69 53 5.0 10.0 0.00 0.00 0.00 10 1018.7
20260503002323 69 43 5.0 10.0 0.00 0.00 0.00 10 1018.8
20260503002316 68 57 5.0 10.0 0.00 0.00 0.00 10 1018.8
20260503002108 68 107 5.0 10.0 0.00 0.00 0.00 12 1018.8
20260503002006 68 103 4.0 10.0 0.00 0.00 0.00 10 1018.8
20260503001906 68 80 4.0 10.0 0.00 0.00 0.00 13 1018.8
20260503001817 68 112 4.0 10.0 0.00 0.00 0.00 12 1018.8
20260503001809 68 123 4.0 9.0 0.00 0.00 0.00 11 1018.8
20260503001559 68 94 4.0 9.0 0.00 0.00 0.00 11 1018.8
20260503001459 67 66 4.0 9.0 0.00 0.00 0.00 13 1018.8
20260503001400 67 129 5.0 10.0 0.00 0.00 0.00 11 1018.8
20260503001300 67 91 5.0 11.0 0.00 0.00 0.00 11 1018.8
20260503001200 67 30 6.0 11.0 0.00 0.00 0.00 11 1018.8
20260503001054 67 86 6.0 11.0 0.00 0.00 0.00 15 1018.8
20260503000954 67 63 6.0 11.0 0.00 0.00 0.00 18 1019.0
20260503000853 67 94 6.0 11.0 0.00 0.00 0.00 17 1018.8
20260503000754 67 98 5.0 11.0 0.00 0.00 0.00 15 1018.8
20260503000654 68 52 5.0 11.0 0.00 0.00 0.00 15 1018.8
20260503000547 68 71 5.0 11.0 0.00 0.00 0.00 14 1018.8
20260503000449 68 59 5.0 11.0 0.00 0.00 0.00 15 1018.8
20260503000354 69 73 4.0 11.0 0.00 0.00 0.00 15 1018.8
20260503000147 70 88 4.0 11.0 0.00 0.00 0.00 16 1019.0
20260503000044 70 80 4.0 10.0 0.00 0.00 0.00 18 1018.8
20260502235944 71 105 4.0 10.0 0.00 0.00 0.00 29 1018.8
20260502235852 71 76 4.0 10.0 0.00 0.00 0.00 29 1019.0
20260502235641 71 115 4.0 10.0 0.00 0.00 0.00 13 1018.8
20260502235536 71 157 4.0 10.0 0.00 0.00 0.00 13 1019.0
20260502235436 71 88 4.0 10.0 0.00 0.00 0.00 11 1019.0
20260502235335 72 96 4.0 10.0 0.00 0.00 0.00 12 1019.0
20260502235236 72 96 4.0 10.0 0.00 0.00 0.00 10 1019.0
20260502235136 72 81 4.0 10.0 0.00 0.00 0.00 10 1018.8
20260502235039 72 132 4.0 8.0 0.00 0.00 0.00 10 1019.0
20260502234832 72 98 4.0 8.0 0.00 0.00 0.00 10 1019.0
20260502234740 72 87 4.0 8.0 0.00 0.00 0.00 10 1019.0
20260502234734 72 98 4.0 8.0 0.00 0.00 0.00 11 1019.0
20260502234535 72 132 4.0 8.0 0.00 0.00 0.00 11 1019.0
20260502234329 72 128 4.0 8.0 0.00 0.00 0.00 11 1019.1
20260502234227 72 142 4.0 8.0 0.00 0.00 0.00 11 1019.1
20260502234123 71 150 4.0 8.0 0.00 0.00 0.00 11 1019.0
20260502234017 71 144 5.0 9.0 0.00 0.00 0.00 10 1019.0
20260502233918 71 126 5.0 10.0 0.00 0.00 0.00 11 1019.0
20260502233825 71 129 5.0 10.0 0.00 0.00 0.00 10 1019.1
20260502233617 71 104 5.0 12.0 0.00 0.00 0.00 11 1019.0
20260502233513 71 38 6.0 12.0 0.00 0.00 0.00 11 1019.0
20260502233411 71 15 6.0 12.0 0.00 0.00 0.00 10 1019.0
20260502233320 71 54 6.0 12.0 0.00 0.00 0.00 11 1019.0
20260502233111 71 34 6.0 12.0 0.00 0.00 0.00 9 1019.0
20260502233005 71 49 6.0 12.0 0.00 0.00 0.00 10 1019.1
20260502232906 71 39 5.0 12.0 0.00 0.00 0.00 10 1019.1
20260502232806 71 34 5.0 12.0 0.00 0.00 0.00 10 1019.1
20260502232706 71 47 5.0 12.0 0.00 0.00 0.00 10 1019.1
20260502232605 72 71 5.0 11.0 0.00 0.00 0.00 12 1019.1
20260502232510 72 69 5.0 10.0 0.00 0.00 0.00 11 1019.1
20260502232304 72 84 5.0 10.0 0.00 0.00 0.00 11 1019.1
20260502232203 72 96 4.0 9.0 0.00 0.00 0.00 11 1019.1
20260502232101 72 113 4.0 9.0 0.00 0.00 0.00 11 1019.1
20260502231854 72 34 4.0 9.0 0.00 0.00 0.00 11 1019.1
20260502231754 72 74 3.0 9.0 0.00 0.00 0.00 10 1019.1
20260502231704 72 62 3.0 9.0 0.00 0.00 0.00 10 1019.1
20260502231553 73 67 3.0 9.0 0.00 0.00 0.00 11 1019.1
20260502231454 73 55 3.0 9.0 0.00 0.00 0.00 11 1019.1
20260502231247 73 9 3.0 9.0 0.00 0.00 0.00 9 1019.2
20260502231147 73 9 3.0 9.0 0.00 0.00 0.00 10 1019.2
20260502231048 73 60 3.0 9.0 0.00 0.00 0.00 11 1019.2
20260502230945 73 59 3.0 9.0 0.00 0.00 0.00 10 1019.1
20260502230846 73 72 4.0 9.0 0.00 0.00 0.00 10 1019.1
20260502230746 72 72 5.0 11.0 0.00 0.00 0.00 10 1019.2
20260502230644 72 72 5.0 12.0 0.00 0.00 0.00 11 1019.2
20260502230545 72 31 5.0 12.0 0.00 0.00 0.00 12 1019.1
20260502230336 72 74 4.0 12.0 0.00 0.00 0.00 10 1019.2
20260502230236 72 108 5.0 12.0 0.00 0.00 0.00 10 1019.2
20260502230136 72 336 5.0 12.0 0.00 0.00 0.00 11 1019.2
20260502230035 72 53 5.0 12.0 0.00 0.00 0.00 10 1019.2
20260502225929 73 44 5.0 12.0 0.00 0.00 0.00 10 1019.2
20260502225829 73 71 5.0 12.0 0.00 0.00 0.00 10 1019.2
20260502225748 73 81 4.0 12.0 0.00 0.00 0.00 11 1019.3
20260502225742 72 92 4.0 10.0 0.00 0.00 0.00 12 1019.3
20260502225338 72 101 5.0 11.0 0.00 0.00 0.00 11 1019.2
20260502225031 72 36 6.0 11.0 0.00 0.00 0.00 10 1019.2
20260502225023 72 41 6.0 11.0 0.00 0.00 0.00 10 1019.2
20260502224924 72 58 7.0 15.0 0.00 0.00 0.00 11 1019.2
20260502224717 72 40 7.0 15.0 0.00 0.00 0.00 10 1019.3
20260502224617 72 88 6.0 15.0 0.00 0.00 0.00 10 1019.3
20260502224529 72 84 6.0 15.0 0.00 0.00 0.00 10 1019.3
20260502224517 72 103 6.0 15.0 0.00 0.00 0.00 10 1019.3
20260502224413 72 96 6.0 15.0 0.00 0.00 0.00 10 1019.4
20260502224312 73 92 6.0 15.0 0.00 0.00 0.00 10 1019.4
20260502224211 73 99 5.0 15.0 0.00 0.00 0.00 10 1019.3
20260502224124 73 96 5.0 15.0 0.00 0.00 0.00 10 1019.4
20260502224117 73 55 5.0 15.0 0.00 0.00 0.00 10 1019.3
20260502223908 74 65 5.0 12.0 0.00 0.00 0.00 10 1019.3
20260502223808 74 103 5.0 11.0 0.00 0.00 0.00 10 1019.4
20260502223744 74 71 5.0 11.0 0.00 0.00 0.00 10 1019.3
20260502223506 74 67 5.0 11.0 0.00 0.00 0.00 11 1019.4
20260502223401 74 41 5.0 11.0 0.00 0.00 0.00 12 1019.4
20260502223259 74 69 5.0 11.0 0.00 0.00 0.00 11 1019.4
20260502223200 74 13 5.0 11.0 0.00 0.00 0.00 11 1019.4
20260502223113 74 113 4.0 11.0 0.00 0.00 0.00 11 1019.4
20260502223106 74 109 4.0 11.0 0.00 0.00 0.00 11 1019.4
20260502222854 74 105 4.0 11.0 0.00 0.00 0.00 11 1019.4
20260502222754 73 70 3.0 9.0 0.00 0.00 0.00 11 1019.4
20260502222653 73 61 4.0 10.0 0.00 0.00 0.00 11 1019.4
20260502222554 73 148 4.0 10.0 0.00 0.00 0.00 11 1019.4
20260502222529 73 165 4.0 10.0 0.00 0.00 0.00 13 1019.4
20260502222455 73 157 4.0 10.0 0.00 0.00 0.00 13 1019.4
20260502222348 72 142 4.0 10.0 0.00 0.00 0.00 12 1019.6
20260502222247 72 29 4.0 10.0 0.00 0.00 0.00 11 1019.4
20260502222147 72 112 4.0 10.0 0.00 0.00 0.00 10 1019.4
20260502222135 73 76 4.0 10.0 0.00 0.00 0.00 11 1019.6
20260502221948 73 88 5.0 10.0 0.00 0.00 0.00 10 1019.4
20260502221842 73 65 4.0 10.0 0.00 0.00 0.00 9 1019.6
20260502221749 74 86 4.0 10.0 0.00 0.00 0.00 10 1019.6
20260502221542 74 143 4.0 9.0 0.00 0.00 0.00 12 1019.4
20260502221529 74 134 4.0 9.0 0.00 0.00 0.00 12 1019.4
20260502221442 74 336 4.0 9.0 0.00 0.00 0.00 11 1019.6
20260502221338 74 87 4.0 9.0 0.00 0.00 0.00 10 1019.6
20260502221237 74 69 4.0 9.0 0.00 0.00 0.00 10 1019.6
20260502221137 75 64 4.0 11.0 0.00 0.00 0.00 11 1019.7
20260502221038 74 132 4.0 11.0 0.00 0.00 0.00 11 1019.7
20260502221028 74 138 4.0 11.0 0.00 0.00 0.00 11 1019.7
20260502220935 74 150 4.0 11.0 0.00 0.00 0.00 11 1019.7
20260502220830 74 178 4.0 11.0 0.00 0.00 0.00 11 1019.7
20260502220730 74 178 5.0 11.0 0.00 0.00 0.00 12 1019.7
20260502220641 74 177 5.0 11.0 0.00 0.00 0.00 13 1019.8
20260502220634 74 204 5.0 11.0 0.00 0.00 0.00 12 1019.8
20260502220325 73 144 5.0 11.0 0.00 0.00 0.00 12 1019.8
20260502220226 73 121 5.0 11.0 0.00 0.00 0.00 12 1019.8
20260502220144 73 117 5.0 11.0 0.00 0.00 0.00 14 1019.8
20260502220136 73 149 5.0 11.0 0.00 0.00 0.00 11 1019.8
20260502215818 73 83 5.0 11.0 0.00 0.00 0.00 13 1019.9
20260502215718 74 76 5.0 11.0 0.00 0.00 0.00 13 1019.8
20260502215618 73 78 5.0 11.0 0.00 0.00 0.00 12 1019.9
20260502215524 73 123 5.0 11.0 0.00 0.00 0.00 13 1019.9
20260502215517 73 94 5.0 11.0 0.00 0.00 0.00 13 1019.9
20260502215417 73 213 5.0 14.0 0.00 0.00 0.00 12 1019.9
20260502215321 73 111 5.0 14.0 0.00 0.00 0.00 12 1019.9
20260502215112 72 109 6.0 14.0 0.00 0.00 0.00 12 1019.9
20260502215025 72 123 6.0 14.0 0.00 0.00 0.00 12 1019.9
20260502215012 72 108 6.0 14.0 0.00 0.00 0.00 12 1019.9
20260502214911 72 142 7.0 14.0 0.00 0.00 0.00 12 1020.0
20260502214806 72 144 7.0 14.0 0.00 0.00 0.00 13 1020.0
20260502214705 72 122 7.0 14.0 0.00 0.00 0.00 12 1020.0
20260502214605 72 59 7.0 14.0 0.00 0.00 0.00 15 1020.0
20260502214525 72 74 7.0 14.0 0.00 0.00 0.00 13 1020.0
20260502214513 72 59 7.0 12.0 0.00 0.00 0.00 13 1020.0
20260502214259 72 126 7.0 12.0 0.00 0.00 0.00 13 1020.2
20260502214240 72 57 6.0 12.0 0.00 0.00 0.00 11 1020.0
20260502214000 72 36 5.0 12.0 0.00 0.00 0.00 12 1020.3
20260502213859 72 50 4.0 11.0 0.00 0.00 0.00 12 1020.3
20260502213800 72 60 3.0 11.0 0.00 0.00 0.00 13 1020.4
20260502213553 72 58 3.0 11.0 0.00 0.00 0.00 13 1020.4
20260502213524 72 62 4.0 11.0 0.00 0.00 0.00 13 1020.4
20260502213500 72 85 4.0 11.0 0.00 0.00 0.00 14 1020.4
20260502213252 71 97 5.0 11.0 0.00 0.00 0.00 13 1020.4
20260502213151 71 207 5.0 13.0 0.00 0.00 0.00 13 1020.5
20260502213131 71 94 6.0 13.0 0.00 0.00 0.00 14 1020.5
20260502212952 72 341 6.0 13.0 0.00 0.00 0.00 12 1020.5
20260502212851 72 55 6.0 13.0 0.00 0.00 0.00 11 1020.5
20260502212749 72 96 6.0 13.0 0.00 0.00 0.00 12 1020.5
20260502212649 72 93 6.0 13.0 0.00 0.00 0.00 12 1020.6
20260502212549 72 84 6.0 13.0 0.00 0.00 0.00 13 1020.6
20260502212525 72 77 6.0 13.0 0.00 0.00 0.00 13 1020.6
20260502212449 72 89 5.0 13.0 0.00 0.00 0.00 12 1020.6
20260502212350 72 44 5.0 13.0 0.00 0.00 0.00 13 1020.5
20260502212249 72 131 5.0 13.0 0.00 0.00 0.00 14 1020.6
20260502212149 72 166 5.0 10.0 0.00 0.00 0.00 12 1020.6
20260502212048 72 121 5.0 14.0 0.00 0.00 0.00 14 1020.6
20260502212025 72 144 5.0 14.0 0.00 0.00 0.00 12 1020.6
20260502211947 72 60 5.0 14.0 0.00 0.00 0.00 13 1020.7
20260502211848 72 140 5.0 14.0 0.00 0.00 0.00 11 1020.6
20260502211756 72 94 5.0 14.0 0.00 0.00 0.00 12 1020.7
20260502211547 72 112 5.0 14.0 0.00 0.00 0.00 14 1020.6
20260502211525 72 119 5.0 14.0 0.00 0.00 0.00 12 1020.6
20260502211447 72 98 5.0 14.0 0.00 0.00 0.00 12 1020.7
20260502211354 72 90 5.0 14.0 0.00 0.00 0.00 14 1020.7
20260502211148 72 67 5.0 14.0 0.00 0.00 0.00 13 1020.7
20260502211047 72 64 5.0 14.0 0.00 0.00 0.00 13 1020.7
20260502211024 72 98 5.0 14.0 0.00 0.00 0.00 13 1020.7
20260502210947 72 127 5.0 14.0 0.00 0.00 0.00 14 1020.7
20260502210900 72 82 6.0 14.0 0.00 0.00 0.00 12 1020.7
20260502210631 72 79 6.0 14.0 0.00 0.00 0.00 12 1020.9
20260502210448 72 155 6.0 14.0 0.00 0.00 0.00 13 1020.9
20260502210348 72 128 6.0 14.0 0.00 0.00 0.00 14 1020.9
20260502210255 71 131 6.0 14.0 0.00 0.00 0.00 13 1020.9
20260502210048 71 131 5.0 14.0 0.00 0.00 0.00 15 1021.0
20260502210025 71 115 5.0 13.0 0.00 0.00 0.00 15 1021.0
20260502205947 71 109 5.0 13.0 0.00 0.00 0.00 13 1021.0
20260502205847 71 88 5.0 13.0 0.00 0.00 0.00 13 1020.9
20260502205749 71 97 5.0 13.0 0.00 0.00 0.00 13 1021.0
20260502205647 72 61 5.0 13.0 0.00 0.00 0.00 13 1021.0
20260502205547 71 160 5.0 13.0 0.00 0.00 0.00 14 1021.0
20260502205524 71 137 5.0 13.0 0.00 0.00 0.00 14 1021.0
20260502205443 71 119 5.0 13.0 0.00 0.00 0.00 15 1021.0
20260502205343 71 43 5.0 11.0 0.00 0.00 0.00 15 1021.1
20260502205243 71 54 5.0 11.0 0.00 0.00 0.00 14 1021.1
20260502205143 71 51 5.0 11.0 0.00 0.00 0.00 16 1021.1
20260502205043 72 69 5.0 11.0 0.00 0.00 0.00 15 1021.0
20260502205026 72 90 5.0 11.0 0.00 0.00 0.00 15 1021.0
20260502204943 72 42 5.0 11.0 0.00 0.00 0.00 13 1021.1
20260502204848 72 33 4.0 11.0 0.00 0.00 0.00 13 1021.1
20260502204642 73 59 4.0 11.0 0.00 0.00 0.00 14 1021.1
20260502204633 73 63 4.0 11.0 0.00 0.00 0.00 16 1021.1
20260502204441 72 324 5.0 11.0 0.00 0.00 0.00 14 1021.1
20260502204341 72 297 5.0 11.0 0.00 0.00 0.00 14 1021.1
20260502204237 72 198 5.0 11.0 0.00 0.00 0.00 15 1021.1
20260502204144 72 162 5.0 11.0 0.00 0.00 0.00 13 1021.2
20260502204024 72 142 4.0 11.0 0.00 0.00 0.00 14 1021.1
20260502203935 72 140 4.0 11.0 0.00 0.00 0.00 16 1021.1
20260502203836 72 101 4.0 11.0 0.00 0.00 0.00 17 1021.1
20260502203735 72 104 3.0 11.0 0.00 0.00 0.00 14 1021.1
20260502203635 73 71 3.0 11.0 0.00 0.00 0.00 13 1021.1
20260502203525 73 76 3.0 9.0 0.00 0.00 0.00 14 1021.1
20260502203435 73 102 3.0 9.0 0.00 0.00 0.00 14 1021.1
20260502203335 73 71 3.0 8.0 0.00 0.00 0.00 14 1021.1
20260502203243 73 58 3.0 8.0 0.00 0.00 0.00 18 1021.1
20260502203023 73 206 3.0 8.0 0.00 0.00 0.00 15 1021.1
20260502202930 73 206 4.0 11.0 0.00 0.00 0.00 16 1021.2
20260502202836 73 232 4.0 11.0 0.00 0.00 0.00 14 1021.1
20260502202630 73 198 5.0 11.0 0.00 0.00 0.00 14 1021.1
20260502202534 73 127 5.0 11.0 0.00 0.00 0.00 16 1021.2
20260502202329 72 117 6.0 11.0 0.00 0.00 0.00 15 1021.2
20260502202230 72 177 6.0 11.0 0.00 0.00 0.00 15 1021.2
20260502202129 72 163 5.0 11.0 0.00 0.00 0.00 15 1021.2
20260502202029 72 179 5.0 11.0 0.00 0.00 0.00 15 1021.2
20260502202022 72 184 5.0 11.0 0.00 0.00 0.00 15 1021.2
20260502201929 71 96 5.0 11.0 0.00 0.00 0.00 15 1021.2
20260502201836 71 148 5.0 11.0 0.00 0.00 0.00 16 1021.2
20260502201646 72 96 5.0 11.0 0.00 0.00 0.00 14 1021.2
20260502201640 72 110 5.0 11.0 0.00 0.00 0.00 14 1021.2
20260502201329 72 80 4.0 10.0 0.00 0.00 0.00 15 1021.2
20260502201230 72 171 4.0 10.0 0.00 0.00 0.00 17 1021.2
20260502201125 72 180 4.0 10.0 0.00 0.00 0.00 16 1021.2
20260502201025 72 144 4.0 10.0 0.00 0.00 0.00 16 1021.2
20260502200925 72 67 5.0 10.0 0.00 0.00 0.00 15 1021.2
20260502200826 72 126 5.0 10.0 0.00 0.00 0.00 16 1021.2
20260502200726 72 127 5.0 10.0 0.00 0.00 0.00 16 1021.2
20260502200625 72 150 5.0 10.0 0.00 0.00 0.00 16 1021.3
20260502200526 71 162 4.0 10.0 0.00 0.00 0.00 16 1021.2
20260502200432 71 171 4.0 10.0 0.00 0.00 0.00 18 1021.2
20260502200225 71 166 4.0 10.0 0.00 0.00 0.00 15 1021.3
20260502200125 71 150 4.0 10.0 0.00 0.00 0.00 19 1021.3
20260502200025 71 139 4.0 10.0 0.00 0.00 0.00 17 1021.3
20260502195925 70 98 5.0 13.0 0.00 0.00 0.00 16 1021.3
20260502195833 70 65 5.0 13.0 0.00 0.00 0.00 23 1021.3
20260502195627 70 82 4.0 13.0 0.00 0.00 0.00 21 1021.3
20260502195525 70 29 4.0 13.0 0.00 0.00 0.00 17 1021.3
20260502195432 70 285 4.0 13.0 0.00 0.00 0.00 16 1021.3
20260502195226 70 107 5.0 13.0 0.00 0.00 0.00 17 1021.3
20260502195138 70 130 5.0 13.0 0.00 0.00 0.00 17 1021.5
20260502195131 69 84 5.0 13.0 0.00 0.00 0.00 17 1021.5
20260502194925 69 128 4.0 12.0 0.00 0.00 0.00 17 1021.5
20260502194825 69 115 5.0 12.0 0.00 0.00 0.00 17 1021.5
20260502194732 70 80 5.0 12.0 0.00 0.00 0.00 15 1021.5
20260502194526 70 103 6.0 12.0 0.00 0.00 0.00 17 1021.6
20260502194425 69 126 6.0 13.0 0.00 0.00 0.00 21 1021.6
20260502194332 69 105 7.0 13.0 0.00 0.00 0.00 17 1021.6
20260502194126 69 100 7.0 13.0 0.00 0.00 0.00 16 1021.6
20260502194033 69 150 7.0 13.0 0.00 0.00 0.00 18 1021.6
20260502193832 69 136 6.0 13.0 0.00 0.00 0.00 17 1021.6
20260502193625 69 69 6.0 13.0 0.00 0.00 0.00 17 1021.6
20260502193533 70 78 6.0 13.0 0.00 0.00 0.00 16 1021.6
20260502193324 70 91 5.0 12.0 0.00 0.00 0.00 17 1021.6
20260502193225 70 101 5.0 12.0 0.00 0.00 0.00 17 1021.6
20260502193122 70 111 5.0 12.0 0.00 0.00 0.00 17 1021.7
20260502193026 70 65 5.0 12.0 0.00 0.00 0.00 19 1021.6
20260502193022 70 70 5.0 12.0 0.00 0.00 0.00 19 1021.6
20260502192921 71 304 5.0 12.0 0.00 0.00 0.00 16 1021.6
20260502192821 71 85 5.0 12.0 0.00 0.00 0.00 16 1021.7
20260502192719 71 92 5.0 12.0 0.00 0.00 0.00 17 1021.7
20260502192613 71 105 4.0 12.0 0.00 0.00 0.00 17 1021.8
20260502192523 71 87 4.0 12.0 0.00 0.00 0.00 17 1021.8
20260502192513 71 83 4.0 12.0 0.00 0.00 0.00 18 1021.8
20260502192412 71 146 4.0 10.0 0.00 0.00 0.00 16 1021.7
20260502192314 71 130 4.0 10.0 0.00 0.00 0.00 18 1021.7
20260502192214 71 132 4.0 11.0 0.00 0.00 0.00 17 1021.7
20260502192113 71 150 4.0 11.0 0.00 0.00 0.00 18 1021.8
20260502192023 71 322 5.0 12.0 0.00 0.00 0.00 18 1021.8
20260502192014 71 322 5.0 12.0 0.00 0.00 0.00 17 1021.8
20260502191913 71 322 5.0 12.0 0.00 0.00 0.00 18 1021.8
20260502191814 71 241 5.0 12.0 0.00 0.00 0.00 19 1021.8
20260502191713 70 169 6.0 12.0 0.00 0.00 0.00 17 1021.8
20260502191614 70 190 6.0 12.0 0.00 0.00 0.00 18 1021.9
20260502191513 70 195 6.0 12.0 0.00 0.00 0.00 17 1021.8
20260502191412 70 186 6.0 12.0 0.00 0.00 0.00 18 1021.9
20260502191320 70 148 5.0 12.0 0.00 0.00 0.00 17 1021.9
20260502191140 70 123 4.0 12.0 0.00 0.00 0.00 17 1021.9
20260502191134 70 95 4.0 12.0 0.00 0.00 0.00 18 1021.9
20260502190714 69 102 4.0 12.0 0.00 0.00 0.00 19 1022.0
20260502190621 69 188 4.0 12.0 0.00 0.00 0.00 18 1022.0
20260502190615 69 157 4.0 12.0 0.00 0.00 0.00 18 1021.9
20260502190417 69 9 4.0 12.0 0.00 0.00 0.00 18 1021.9
20260502190217 69 46 5.0 12.0 0.00 0.00 0.00 19 1022.2
20260502190023 69 187 5.0 12.0 0.00 0.00 0.00 19 1022.2
20260502190009 68 153 5.0 12.0 0.00 0.00 0.00 19 1022.2
20260502185910 68 160 5.0 12.0 0.00 0.00 0.00 19 1022.0
20260502185809 68 197 6.0 14.0 0.00 0.00 0.00 18 1022.2
20260502185710 68 155 6.0 14.0 0.00 0.00 0.00 19 1022.2
20260502185609 68 177 6.0 14.0 0.00 0.00 0.00 19 1022.2
20260502185522 68 82 6.0 14.0 0.00 0.00 0.00 21 1022.2
20260502185509 68 111 6.0 14.0 0.00 0.00 0.00 21 1022.2
20260502185408 68 26 6.0 14.0 0.00 0.00 0.00 17 1022.3
20260502185309 69 83 6.0 14.0 0.00 0.00 0.00 16 1022.3
20260502185216 69 89 6.0 14.0 0.00 0.00 0.00 17 1022.3
20260502185022 69 107 6.0 14.0 0.00 0.00 0.00 20 1022.3
20260502185009 69 167 6.0 14.0 0.00 0.00 0.00 18 1022.3
20260502184909 69 178 6.0 14.0 0.00 0.00 0.00 18 1022.3
20260502184810 69 88 5.0 13.0 0.00 0.00 0.00 19 1022.4
20260502184709 69 117 5.0 11.0 0.00 0.00 0.00 19 1022.3
20260502184629 68 186 5.0 11.0 0.00 0.00 0.00 19 1022.3
20260502184506 68 51 5.0 11.0 0.00 0.00 0.00 22 1022.3
20260502184410 68 85 6.0 11.0 0.00 0.00 0.00 19 1022.4
20260502184203 68 62 6.0 12.0 0.00 0.00 0.00 18 1022.4
20260502184113 68 32 6.0 12.0 0.00 0.00 0.00 20 1022.4
20260502184105 68 55 6.0 12.0 0.00 0.00 0.00 18 1022.4
20260502183901 68 82 6.0 12.0 0.00 0.00 0.00 18 1022.5
20260502183802 68 40 6.0 12.0 0.00 0.00 0.00 17 1022.5
20260502183701 68 87 6.0 12.0 0.00 0.00 0.00 17 1022.5
20260502183626 68 113 6.0 12.0 0.00 0.00 0.00 18 1022.5
20260502183508 68 157 6.0 12.0 0.00 0.00 0.00 18 1022.5
20260502183316 68 79 6.0 14.0 0.00 0.00 0.00 20 1022.5
20260502183019 68 46 6.0 14.0 0.00 0.00 0.00 19 1022.6
20260502183001 68 102 6.0 14.0 0.00 0.00 0.00 19 1022.6
20260502182901 68 31 6.0 14.0 0.00 0.00 0.00 19 1022.5
20260502182801 68 32 6.0 14.0 0.00 0.00 0.00 20 1022.6
20260502182734 68 59 6.0 14.0 0.00 0.00 0.00 23 1022.6
20260502182457 68 71 6.0 14.0 0.00 0.00 0.00 21 1022.6
20260502182401 67 38 6.0 13.0 0.00 0.00 0.00 19 1022.6
20260502182148 67 80 5.0 12.0 0.00 0.00 0.00 18 1022.8
20260502182049 67 84 5.0 12.0 0.00 0.00 0.00 18 1022.8
20260502182017 67 78 5.0 12.0 0.00 0.00 0.00 19 1022.8
20260502181948 67 67 5.0 12.0 0.00 0.00 0.00 19 1022.8
20260502181847 67 91 5.0 12.0 0.00 0.00 0.00 19 1022.8
20260502181746 67 71 5.0 12.0 0.00 0.00 0.00 19 1022.8
20260502181641 67 93 5.0 11.0 0.00 0.00 0.00 19 1022.9
20260502181541 67 34 6.0 11.0 0.00 0.00 0.00 19 1022.8
20260502181516 67 67 6.0 11.0 0.00 0.00 0.00 19 1022.8
20260502181438 67 82 6.0 11.0 0.00 0.00 0.00 20 1022.8
20260502181339 67 77 6.0 10.0 0.00 0.00 0.00 20 1022.8
20260502181238 67 65 6.0 12.0 0.00 0.00 0.00 19 1022.9
20260502181140 67 51 6.0 12.0 0.00 0.00 0.00 23 1022.9
20260502181016 67 41 6.0 12.0 0.00 0.00 0.00 20 1022.9
20260502180941 67 58 6.0 12.0 0.00 0.00 0.00 20 1022.9
20260502180732 67 77 6.0 12.0 0.00 0.00 0.00 20 1022.9
20260502180628 67 92 6.0 12.0 0.00 0.00 0.00 19 1023.0
20260502180525 67 95 6.0 12.0 0.00 0.00 0.00 18 1023.0
20260502180513 67 89 6.0 12.0 0.00 0.00 0.00 18 1023.0
20260502180424 67 78 5.0 12.0 0.00 0.00 0.00 20 1023.0
20260502180331 67 76 5.0 12.0 0.00 0.00 0.00 19 1023.0
20260502180137 67 70 6.0 13.0 0.00 0.00 0.00 19 1023.1
20260502170516 63 77 6.0 11.0 0.00 0.00 0.00 21 1023.6
20260502170510 63 62 6.0 11.0 0.00 0.00 0.00 21 1023.6
20260502170304 64 42 7.0 11.0 0.00 0.00 0.00 20 1023.6
20260502170206 64 49 6.0 11.0 0.00 0.00 0.00 21 1023.7
20260502170104 64 55 7.0 11.0 0.00 0.00 0.00 21 1023.7
20260502164341 64 77 5.0 10.0 0.00 0.00 0.00 20 1023.7
20260502164241 64 54 5.0 12.0 0.00 0.00 0.00 22 1023.6
20260502164148 63 83 5.0 12.0 0.00 0.00 0.00 24 1023.6
20260502163934 63 67 5.0 12.0 0.00 0.00 0.00 20 1023.6
20260502163856 63 39 4.0 12.0 0.00 0.00 0.00 20 1023.6
20260502163843 63 28 4.0 12.0 0.00 0.00 0.00 22 1023.7
20260502163635 63 47 4.0 12.0 0.00 0.00 0.00 22 1023.7
20260502163535 63 0 4.0 12.0 0.00 0.00 0.00 21 1023.6
20260502163432 63 49 3.0 12.0 0.00 0.00 0.00 22 1023.7
20260502163349 63 55 3.0 12.0 0.00 0.00 0.00 22 1023.7
20260502163331 63 61 3.0 11.0 0.00 0.00 0.00 23 1023.7
20260502163231 63 24 3.0 9.0 0.00 0.00 0.00 23 1023.7
20260502163131 63 80 3.0 10.0 0.00 0.00 0.00 27 1023.7
20260502163028 62 49 3.0 10.0 0.00 0.00 0.00 23 1023.7
20260502162925 62 38 3.0 10.0 0.00 0.00 0.00 22 1023.7
20260502162844 62 67 3.0 10.0 0.00 0.00 0.00 22 1023.7
20260502162824 62 40 3.0 10.0 0.00 0.00 0.00 23 1023.7
20260502162723 62 12 3.0 10.0 0.00 0.00 0.00 23 1023.7
20260502162623 62 37 3.0 10.0 0.00 0.00 0.00 22 1023.7
20260502162522 62 38 3.0 10.0 0.00 0.00 0.00 20 1023.8
20260502162420 62 84 4.0 10.0 0.00 0.00 0.00 21 1023.8
20260502162338 62 83 4.0 10.0 0.00 0.00 0.00 21 1023.8
20260502162324 63 86 4.0 10.0 0.00 0.00 0.00 21 1023.8
20260502162116 63 53 3.0 7.0 0.00 0.00 0.00 21 1023.8
20260502162026 62 94 3.0 6.0 0.00 0.00 0.00 28 1023.8
20260502161831 62 22 3.0 6.0 0.00 0.00 0.00 25 1023.8
20260502161815 62 22 3.0 6.0 0.00 0.00 0.00 21 1023.8
20260502161715 62 338 3.0 6.0 0.00 0.00 0.00 21 1023.8
20260502161613 62 44 3.0 6.0 0.00 0.00 0.00 22 1023.8
20260502161509 62 27 3.0 6.0 0.00 0.00 0.00 21 1023.8
20260502161433 63 42 3.0 7.0 0.00 0.00 0.00 21 1023.8
20260502161304 63 78 2.0 7.0 0.00 0.00 0.00 22 1023.8
20260502161205 63 323 2.0 7.0 0.00 0.00 0.00 25 1023.8
20260502161105 62 355 3.0 7.0 0.00 0.00 0.00 25 1023.9
20260502161028 62 34 3.0 8.0 0.00 0.00 0.00 25 1023.9
20260502161021 62 49 3.0 8.0 0.00 0.00 0.00 22 1023.9
20260502160602 62 26 3.0 10.0 0.00 0.00 0.00 26 1023.9
20260502160458 62 319 3.0 10.0 0.00 0.00 0.00 29 1023.9
20260502160352 62 40 3.0 10.0 0.00 0.00 0.00 27 1023.9
20260502160314 62 0 4.0 10.0 0.00 0.00 0.00 23 1023.9
20260502160301 62 102 4.0 10.0 0.00 0.00 0.00 23 1023.9
20260502152208 60 61 3.0 7.0 0.00 0.00 0.00 25 1024.2
20260502152109 60 67 2.0 7.0 0.00 0.00 0.00 25 1024.2
20260502152007 60 68 2.0 7.0 0.00 0.00 0.00 26 1024.3
20260502151933 59 68 2.0 7.0 0.00 0.00 0.00 26 1024.3
20260502151703 59 133 3.0 7.0 0.00 0.00 0.00 29 1024.3
20260502151607 59 76 3.0 6.0 0.00 0.00 0.00 28 1024.3
20260502151358 58 57 2.0 6.0 0.00 0.00 0.00 28 1024.3
20260502151253 58 257 2.0 6.0 0.00 0.00 0.00 29 1024.3
20260502151214 58 5 3.0 6.0 0.00 0.00 0.00 28 1024.3
20260502151153 58 102 3.0 6.0 0.00 0.00 0.00 28 1024.3
20260502151053 57 89 3.0 6.0 0.00 0.00 0.00 29 1024.3
20260502150952 57 53 2.0 6.0 0.00 0.00 0.00 32 1024.3
20260502150853 56 52 2.0 6.0 0.00 0.00 0.00 32 1024.4
20260502150749 56 53 2.0 6.0 0.00 0.00 0.00 32 1024.3
20260502150707 56 53 2.0 5.0 0.00 0.00 0.00 32 1024.3
20260502150650 56 36 2.0 5.0 0.00 0.00 0.00 32 1024.4
20260502150548 56 142 2.0 5.0 0.00 0.00 0.00 31 1024.3
20260502150450 55 142 2.0 5.0 0.00 0.00 0.00 31 1024.3
20260502150346 55 142 3.0 5.0 0.00 0.00 0.00 31 1024.4
20260502150243 55 180 3.0 5.0 0.00 0.00 0.00 32 1024.3
20260502150202 55 151 3.0 5.0 0.00 0.00 0.00 33 1024.3
20260502150144 54 132 3.0 5.0 0.00 0.00 0.00 33 1024.4
20260502130729 48 197 1.0 4.0 0.00 0.00 0.00 43 1024.3
20260502130629 47 197 1.0 4.0 0.00 0.00 0.00 44 1024.3
20260502130444 47 82 1.0 4.0 0.00 0.00 0.00 45 1024.3
20260502130422 46 82 1.0 4.0 0.00 0.00 0.00 45 1024.3
20260502130323 46 101 1.0 4.0 0.00 0.00 0.00 46 1024.3
20260502130222 45 75 1.0 4.0 0.00 0.00 0.00 47 1024.3
20260502130122 45 329 1.0 4.0 0.00 0.00 0.00 47 1024.3
20260502123653 34 107 1.0 3.0 0.00 0.00 0.00 64 1024.2
20260502123553 34 107 1.0 3.0 0.00 0.00 0.00 64 1024.2
20260502123448 34 136 0.0 2.0 0.00 0.00 0.00 64 1024.2
20260502123438 34 138 0.0 2.0 0.00 0.00 0.00 64 1024.2
20260502123347 34 159 0.0 2.0 0.00 0.00 0.00 64 1024.2
20260502123247 34 176 0.0 2.0 0.00 0.00 0.00 64 1024.1
20260502123147 34 188 0.0 2.0 0.00 0.00 0.00 64 1024.2
20260502123046 34 202 0.0 2.0 0.00 0.00 0.00 64 1024.1
20260502122938 34 209 0.0 2.0 0.00 0.00 0.00 64 1024.1
20260502122845 34 224 0.0 2.0 0.00 0.00 0.00 64 1024.1
20260502122743 34 255 0.0 2.0 0.00 0.00 0.00 64 1024.1
20260502122642 34 252 0.0 2.0 0.00 0.00 0.00 64 1024.1
20260502122548 35 258 0.0 2.0 0.00 0.00 0.00 64 1024.1
20260502122542 35 258 0.0 2.0 0.00 0.00 0.00 64 1024.1
20260502122334 35 258 0.0 2.0 0.00 0.00 0.00 64 1024.1
20260502122243 35 258 0.0 2.0 0.00 0.00 0.00 64 1024.1
20260502122044 35 258 0.0 2.0 0.00 0.00 0.00 64 1023.9
20260502122038 35 258 0.0 2.0 0.00 0.00 0.00 64 1023.9
20260502121832 35 294 0.0 2.0 0.00 0.00 0.00 64 1023.9
20260502121731 35 294 0.0 2.0 0.00 0.00 0.00 64 1024.1
20260502121630 35 293 0.0 2.0 0.00 0.00 0.00 64 1023.9
20260502121531 35 288 0.0 2.0 0.00 0.00 0.00 64 1023.9
20260502121430 35 284 0.0 2.0 0.00 0.00 0.00 64 1023.9
20260502121331 35 283 0.0 2.0 0.00 0.00 0.00 64 1024.1
20260502121230 35 304 0.0 2.0 0.00 0.00 0.00 64 1023.9
20260502121129 34 0 0.0 2.0 0.00 0.00 0.00 64 1024.1
20260502121028 34 9 0.0 2.0 0.00 0.00 0.00 64 1023.9
20260502120942 34 15 0.0 2.0 0.00 0.00 0.00 63 1024.1
20260502120938 34 355 0.0 2.0 0.00 0.00 0.00 63 1024.1
20260502120622 35 355 0.0 2.0 0.00 0.00 0.00 63 1023.9
20260502120531 35 160 0.0 2.0 0.00 0.00 0.00 63 1023.9
20260502120525 35 160 0.0 2.0 0.00 0.00 0.00 63 1023.9
20260502120318 35 76 0.0 2.0 0.00 0.00 0.00 63 1023.9
20260502120220 35 76 0.0 2.0 0.00 0.00 0.00 63 1023.9
20260502120116 35 76 0.0 2.0 0.00 0.00 0.00 62 1023.9
20260502115930 35 76 0.0 2.0 0.00 0.00 0.00 61 1023.9
20260502115919 35 76 0.0 2.0 0.00 0.00 0.00 62 1023.9
20260502115713 35 76 0.0 2.0 0.00 0.00 0.00 62 1023.9
20260502115610 35 76 0.0 2.0 0.00 0.00 0.00 61 1023.8
20260502115512 35 76 0.0 2.0 0.00 0.00 0.00 61 1023.8
20260502115410 35 76 0.0 2.0 0.00 0.00 0.00 61 1023.9
20260502115313 35 76 0.0 2.0 0.00 0.00 0.00 61 1023.8
20260502115111 35 76 0.0 2.0 0.00 0.00 0.00 60 1023.8
20260502114904 35 76 0.0 2.0 0.00 0.00 0.00 60 1023.8
20260502114804 35 76 0.0 2.0 0.00 0.00 0.00 60 1023.8
20260502114705 35 76 0.0 2.0 0.00 0.00 0.00 60 1023.7
20260502114602 35 76 0.0 0.0 0.00 0.00 0.00 60 1023.8
20260502114533 35 76 0.0 0.0 0.00 0.00 0.00 60 1023.8
20260502114258 35 76 0.0 2.0 0.00 0.00 0.00 60 1023.7
20260502114200 35 76 0.0 2.0 0.00 0.00 0.00 60 1023.8
20260502114056 35 76 0.0 2.0 0.00 0.00 0.00 60 1023.8
20260502113956 35 76 0.0 2.0 0.00 0.00 0.00 60 1023.7
20260502113923 35 76 1.0 2.0 0.00 0.00 0.00 60 1023.8
20260502113856 35 76 1.0 2.0 0.00 0.00 0.00 60 1023.8
20260502113756 35 76 1.0 2.0 0.00 0.00 0.00 60 1023.7
20260502113657 35 76 1.0 2.0 0.00 0.00 0.00 59 1023.7
20260502113555 35 76 1.0 2.0 0.00 0.00 0.00 59 1023.7
20260502113457 35 76 1.0 3.0 0.00 0.00 0.00 59 1023.7
20260502113250 35 76 1.0 3.0 0.00 0.00 0.00 58 1023.8
20260502113151 35 76 1.0 3.0 0.00 0.00 0.00 59 1023.7
20260502113059 35 76 1.0 3.0 0.00 0.00 0.00 59 1023.8
20260502112924 36 76 1.0 3.0 0.00 0.00 0.00 58 1023.8
20260502112851 36 76 1.0 3.0 0.00 0.00 0.00 58 1023.8
20260502112751 36 76 1.0 3.0 0.00 0.00 0.00 58 1023.8
20260502112647 36 76 1.0 3.0 0.00 0.00 0.00 58 1023.7
20260502112544 36 76 1.0 3.0 0.00 0.00 0.00 58 1023.7
20260502112424 36 76 1.0 3.0 0.00 0.00 0.00 58 1023.7
20260502112351 36 76 0.0 3.0 0.00 0.00 0.00 58 1023.7
20260502112141 36 76 0.0 2.0 0.00 0.00 0.00 58 1023.7
20260502112041 37 76 0.0 2.0 0.00 0.00 0.00 58 1023.7
20260502111945 37 76 0.0 2.0 0.00 0.00 0.00 58 1023.7
20260502111739 37 76 0.0 2.0 0.00 0.00 0.00 58 1023.7
20260502111635 37 76 0.0 2.0 0.00 0.00 0.00 58 1023.7
20260502111532 37 76 1.0 2.0 0.00 0.00 0.00 58 1023.7
20260502111412 37 76 1.0 2.0 0.00 0.00 0.00 58 1023.6
20260502111339 37 76 1.0 2.0 0.00 0.00 0.00 58 1023.6
20260502111132 37 76 1.0 3.0 0.00 0.00 0.00 57 1023.6
20260502111030 37 76 1.0 4.0 0.00 0.00 0.00 57 1023.6
20260502110906 38 76 2.0 4.0 0.00 0.00 0.00 57 1023.6
20260502110829 38 76 2.0 4.0 0.00 0.00 0.00 57 1023.6
20260502110726 38 76 2.0 4.0 0.00 0.00 0.00 56 1023.6
20260502110626 38 76 2.0 4.0 0.00 0.00 0.00 56 1023.6
20260502110526 38 76 2.0 4.0 0.00 0.00 0.00 56 1023.6
20260502110506 38 76 2.0 4.0 0.00 0.00 0.00 56 1023.7
20260502110322 38 76 2.0 4.0 0.00 0.00 0.00 56 1023.7
20260502110220 38 76 2.0 4.0 0.00 0.00 0.00 56 1023.7
20260502110120 38 76 2.0 4.0 0.00 0.00 0.00 56 1023.6
20260502110018 38 76 2.0 6.0 0.00 0.00 0.00 54 1023.7
20260502105919 38 76 2.0 7.0 0.00 0.00 0.00 54 1023.6
20260502105854 38 76 2.0 7.0 0.00 0.00 0.00 54 1023.6
20260502105818 38 76 2.0 7.0 0.00 0.00 0.00 53 1023.6
20260502105714 38 76 2.0 7.0 0.00 0.00 0.00 53 1023.6
20260502105610 38 76 2.0 7.0 0.00 0.00 0.00 53 1023.7
20260502105508 38 76 2.0 7.0 0.00 0.00 0.00 53 1023.6
20260502105456 37 76 2.0 7.0 0.00 0.00 0.00 52 1023.6
20260502105309 37 76 2.0 7.0 0.00 0.00 0.00 53 1023.6
20260502105208 37 76 2.0 7.0 0.00 0.00 0.00 53 1023.6
20260502105102 37 47 2.0 7.0 0.00 0.00 0.00 53 1023.6
20260502105002 37 70 2.0 7.0 0.00 0.00 0.00 53 1023.7
20260502104902 37 215 1.0 3.0 0.00 0.00 0.00 52 1023.5
20260502104841 37 215 1.0 3.0 0.00 0.00 0.00 52 1023.6
20260502104803 37 215 1.0 3.0 0.00 0.00 0.00 52 1023.6
20260502104702 37 215 1.0 3.0 0.00 0.00 0.00 52 1023.5
20260502104601 37 215 1.0 3.0 0.00 0.00 0.00 52 1023.6
20260502104508 37 215 1.0 3.0 0.00 0.00 0.00 52 1023.6
20260502104335 37 215 1.0 3.0 0.00 0.00 0.00 52 1023.5
20260502104258 37 215 1.0 3.0 0.00 0.00 0.00 52 1023.5
20260502104156 37 215 1.0 3.0 0.00 0.00 0.00 52 1023.5
20260502104053 37 215 2.0 3.0 0.00 0.00 0.00 52 1023.5
20260502103952 37 215 2.0 3.0 0.00 0.00 0.00 51 1023.5
20260502103938 37 215 1.0 3.0 0.00 0.00 0.00 51 1023.5
20260502103753 37 215 1.0 3.0 0.00 0.00 0.00 51 1023.6
20260502103650 37 215 1.0 3.0 0.00 0.00 0.00 51 1023.6
20260502103551 37 215 1.0 3.0 0.00 0.00 0.00 51 1023.6
20260502103457 37 215 1.0 3.0 0.00 0.00 0.00 51 1023.6
20260502103323 38 215 1.0 3.0 0.00 0.00 0.00 51 1023.6
20260502103257 38 215 1.0 2.0 0.00 0.00 0.00 51 1023.6
20260502103049 38 215 1.0 2.0 0.00 0.00 0.00 51 1023.6
20260502102948 38 215 1.0 2.0 0.00 0.00 0.00 51 1023.6
20260502102853 38 215 1.0 2.0 0.00 0.00 0.00 51 1023.5
20260502102648 38 215 1.0 2.0 0.00 0.00 0.00 51 1023.6
20260502102548 38 215 1.0 2.0 0.00 0.00 0.00 51 1023.5
20260502102449 38 215 1.0 3.0 0.00 0.00 0.00 52 1023.5
20260502102348 38 215 1.0 3.0 0.00 0.00 0.00 51 1023.6
20260502102314 38 215 1.0 3.0 0.00 0.00 0.00 51 1023.6
20260502102248 38 215 2.0 3.0 0.00 0.00 0.00 51 1023.5
20260502102148 38 215 2.0 3.0 0.00 0.00 0.00 52 1023.6
20260502102048 38 215 2.0 3.0 0.00 0.00 0.00 52 1023.5
20260502101948 38 215 2.0 3.0 0.00 0.00 0.00 52 1023.6
20260502101845 38 215 2.0 3.0 0.00 0.00 0.00 51 1023.6
20260502101814 38 215 2.0 3.0 0.00 0.00 0.00 51 1023.6
20260502101743 38 215 2.0 3.0 0.00 0.00 0.00 51 1023.6
20260502101657 38 215 2.0 3.0 0.00 0.00 0.00 52 1023.5
20260502101336 38 215 2.0 3.0 0.00 0.00 0.00 51 1023.5
20260502101312 38 215 2.0 3.0 0.00 0.00 0.00 52 1023.5
20260502101236 38 215 2.0 4.0 0.00 0.00 0.00 49 1023.6
20260502101136 38 215 2.0 4.0 0.00 0.00 0.00 49 1023.6
20260502101036 39 215 2.0 4.0 0.00 0.00 0.00 49 1023.6
20260502100936 39 215 2.0 4.0 0.00 0.00 0.00 49 1023.5
20260502100810 39 215 2.0 4.0 0.00 0.00 0.00 48 1023.5
20260502100746 39 215 2.0 4.0 0.00 0.00 0.00 48 1023.5
20260502100430 39 205 2.0 4.0 0.00 0.00 0.00 48 1023.5
20260502100309 39 205 2.0 4.0 0.00 0.00 0.00 48 1023.5
20260502100237 39 233 2.0 3.0 0.00 0.00 0.00 48 1023.5
20260502091449 41 232 3.0 6.0 0.00 0.00 0.00 45 1023.4
20260502091348 41 246 3.0 6.0 0.00 0.00 0.00 44 1023.4
20260502091309 41 225 3.0 6.0 0.00 0.00 0.00 44 1023.4
20260502091305 41 244 3.0 6.0 0.00 0.00 0.00 44 1023.4
20260502090951 41 248 3.0 6.0 0.00 0.00 0.00 44 1023.4
20260502090806 41 251 3.0 7.0 0.00 0.00 0.00 44 1023.2
20260502090743 41 237 4.0 7.0 0.00 0.00 0.00 44 1023.4
20260502090642 41 247 3.0 7.0 0.00 0.00 0.00 44 1023.2
20260502090543 41 243 3.0 7.0 0.00 0.00 0.00 44 1023.4
20260502090307 41 229 3.0 7.0 0.00 0.00 0.00 44 1023.4
20260502090226 41 229 3.0 7.0 0.00 0.00 0.00 44 1023.4
20260502090127 41 233 3.0 7.0 0.00 0.00 0.00 44 1023.4